Longville, MN

10:22 AM CDT on May 29, 2017 (GMT -0500)
Longville Municipal

Weather History for KXVG - May, 2014

Change the Weather History Date:

Monday, May 26, 2014

  Actual Average (KPWC) Record (KPWC)
Temperature  
Mean Temperature 70 °F -  
Max Temperature 82 °F 66 °F 82 °F (2014)
Min Temperature 57 °F 43 °F 30 °F (2004)
Cooling Degree Days 4    
Growing Degree Days 20 (Base 50)    
Moisture  
Dew Point 58 °F    
Average Humidity 67    
Maximum Humidity 100    
Minimum Humidity 37    
Precipitation  
Precipitation 0.00 in - - ()
Sea Level Pressure  
Sea Level Pressure 29.91 in    
Wind  
Wind Speed 4 mph (North)    
Max Wind Speed 8 mph    
Max Gust Speed -    
Visibility 9 miles    
Events      
Averages and records for this station are not official NWS values.
T = Trace of Precipitation, MM = Missing Value Source: NWS Daily Summary

Daily Weather History Graph

Daily Weather History Graph

Search for Another Location

Airport or City:

Trip Planner

Search our weather history database for the weather conditions in past years. The results will help you decide how hot, cold, wet, or windy it might be!

Date:

Astronomy

May. 26, 2014 Rise Set
Actual Time 5:30 AM CDT 8:58 PM CDT
Civil Twilight 4:52 AM CDT 9:36 PM CDT
Nautical Twilight 4:02 AM CDT 10:26 PM CDT
Astronomical Twilight 2:57 AM CDT 11:32 PM CDT
Moon 4:22 AM CDT (5/26) 6:53 PM CDT (5/26)
Length of Visible Light 16h 43m
Length of Day
15h 28m
Waning Crescent, 5% of the Moon is Illuminated
May 26
Waning Crescent
May 28
New
Jun 5
First Quarter
Jun 12
Full
Jun 19
Last Quarter

Hourly Weather History & Observations

Time (CDT) Temp. Heat Index Dew Point Humidity Pressure Visibility Wind Dir Wind Speed Gust Speed Precip Events Conditions
12:54 AM 68.0 °F - 60.8 °F 78% 29.89 in 10.0 mi South 8.1 mph - N/A   Mostly Cloudy
12:57 AM 68.0 °F - 60.8 °F 78% 29.88 in 10.0 mi South 6.9 mph - N/A   Mostly Cloudy
1:37 AM 68.0 °F - 60.8 °F 78% 29.88 in 10.0 mi SW 5.8 mph - N/A   Scattered Clouds
1:50 AM 66.2 °F - 60.8 °F 83% 29.88 in 10.0 mi SW 4.6 mph - N/A   Scattered Clouds
2:01 AM 66.2 °F - 60.8 °F 83% 29.89 in 10.0 mi SW 3.5 mph - N/A   Clear
2:18 AM 66.2 °F - 60.8 °F 83% 29.89 in 10.0 mi Calm Calm - N/A   Scattered Clouds
4:15 AM 59.0 °F - 57.2 °F 94% 29.88 in 7.0 mi Calm Calm - N/A   Clear
5:34 AM 57.2 °F - 55.4 °F 94% 29.90 in 5.0 mi Calm Calm - N/A   Clear
5:37 AM 57.2 °F - 55.4 °F 94% 29.89 in 5.0 mi Calm Calm - N/A   Clear
5:42 AM 57.2 °F - 57.2 °F 100% 29.89 in 4.0 mi Calm Calm - N/A   Clear
6:04 AM 57.2 °F - 57.2 °F 100% 29.90 in 2.5 mi Calm Calm - N/A   Clear
6:56 AM 60.8 °F - 60.8 °F 100% 29.90 in 7.0 mi Calm Calm - N/A   Clear
7:03 AM 60.8 °F - 60.8 °F 100% 29.90 in 10.0 mi Calm Calm - N/A   Clear
7:50 AM 62.6 °F - 60.8 °F 94% 29.92 in 7.0 mi Calm Calm - N/A   Overcast
7:56 AM 62.6 °F - 60.8 °F 94% 29.93 in 7.0 mi Calm Calm - N/A   Overcast
8:19 AM 62.6 °F - 60.8 °F 94% 29.93 in 7.0 mi North 3.5 mph - N/A   Overcast
8:57 AM 64.4 °F - 60.8 °F 88% 29.93 in 10.0 mi NNE 3.5 mph - N/A   Overcast
9:03 AM 64.4 °F - 60.8 °F 88% 29.93 in 10.0 mi North 5.8 mph - N/A   Overcast
9:22 AM 64.4 °F - 60.8 °F 88% 29.93 in 10.0 mi NNE 3.5 mph - N/A   Overcast
9:40 AM 66.2 °F - 60.8 °F 83% 29.94 in 10.0 mi North 6.9 mph - N/A   Overcast
10:01 AM 66.2 °F - 60.8 °F 83% 29.93 in 10.0 mi North 4.6 mph - N/A   Overcast
10:20 AM 68.0 °F - 60.8 °F 78% 29.94 in 10.0 mi North 4.6 mph - N/A   Mostly Cloudy
10:37 AM 69.8 °F - 60.8 °F 73% 29.94 in 10.0 mi North 3.5 mph - N/A   Scattered Clouds
10:56 AM 71.6 °F - 60.8 °F 69% 29.94 in 10.0 mi NE 3.5 mph - N/A   Clear
11:17 AM 71.6 °F - 60.8 °F 69% 29.94 in 10.0 mi NE 3.5 mph - N/A   Clear
11:36 AM 73.4 °F - 60.8 °F 65% 29.94 in 10.0 mi NNE 4.6 mph - N/A   Clear
11:57 AM 75.2 °F - 60.8 °F 61% 29.93 in 10.0 mi NNE 8.1 mph - N/A   Clear
12:16 PM 75.2 °F - 60.8 °F 61% 29.93 in 10.0 mi North 5.8 mph - N/A   Clear
12:36 PM 75.2 °F - 57.2 °F 53% 29.93 in 10.0 mi North 6.9 mph - N/A   Clear
12:58 PM 77.0 °F - 59.0 °F 54% 29.94 in 10.0 mi NNW 3.5 mph - N/A   Clear
1:19 PM 78.8 °F - 59.0 °F 51% 29.93 in 10.0 mi ENE 4.6 mph - N/A   Clear
1:39 PM 77.0 °F - 57.2 °F 50% 29.92 in 10.0 mi Calm Calm - N/A   Clear
1:58 PM 78.8 °F - 57.2 °F 47% 29.92 in 10.0 mi North 5.8 mph - N/A   Clear
2:36 PM 78.8 °F - 57.2 °F 47% 29.91 in 10.0 mi West 5.8 mph - N/A   Clear
2:51 PM 78.8 °F - 57.2 °F 47% 29.90 in 10.0 mi NNW 4.6 mph - N/A   Clear
3:17 PM 80.6 °F 80.8 °F 57.2 °F 45% 29.90 in 10.0 mi NNW 8.1 mph - N/A   Clear
3:37 PM 78.8 °F - 57.2 °F 47% 29.90 in 10.0 mi NW 6.9 mph - N/A   Clear
3:56 PM 80.6 °F 80.8 °F 57.2 °F 45% 29.90 in 10.0 mi NNE 6.9 mph - N/A   Clear
4:18 PM 80.6 °F 80.5 °F 55.4 °F 42% 29.89 in 10.0 mi NNE 4.6 mph - N/A   Clear
4:36 PM 82.4 °F 81.7 °F 55.4 °F 39% 29.89 in 10.0 mi North 5.8 mph - N/A   Clear
4:57 PM 82.4 °F 81.7 °F 55.4 °F 39% 29.89 in 10.0 mi NNW 5.8 mph - N/A   Clear
5:17 PM 82.4 °F 81.7 °F 55.4 °F 39% 29.89 in 10.0 mi North 6.9 mph - N/A   Clear
5:37 PM 82.4 °F 81.4 °F 53.6 °F 37% 29.89 in 10.0 mi North 5.8 mph - N/A   Clear
5:57 PM 80.6 °F 80.3 °F 53.6 °F 39% 29.89 in 10.0 mi North 3.5 mph - N/A   Clear
6:17 PM 80.6 °F 80.3 °F 53.6 °F 39% 29.89 in 10.0 mi North 4.6 mph - N/A   Clear
6:38 PM 80.6 °F 80.3 °F 53.6 °F 39% 29.89 in 10.0 mi NNE 3.5 mph - N/A   Clear
7:00 PM 78.8 °F - 53.6 °F 42% 29.89 in 10.0 mi Calm Calm - N/A   Clear
7:17 PM 78.8 °F - 53.6 °F 42% 29.89 in 10.0 mi NE 3.5 mph - N/A   Clear
7:37 PM 78.8 °F - 53.6 °F 42% 29.89 in 10.0 mi Calm Calm - N/A   Clear
7:56 PM 78.8 °F - 53.6 °F 42% 29.89 in 10.0 mi North 3.5 mph - N/A   Clear
8:17 PM 77.0 °F - 53.6 °F 44% 29.89 in 10.0 mi Calm Calm - N/A   Clear
8:37 PM 75.2 °F - 53.6 °F 47% 29.90 in 10.0 mi Calm Calm - N/A   Clear
8:57 PM 73.4 °F - 55.4 °F 53% 29.90 in 10.0 mi Calm Calm - N/A   Clear
9:18 PM 69.8 °F - 57.2 °F 64% 29.91 in 10.0 mi Calm Calm - N/A   Clear
9:38 PM 66.2 °F - 57.2 °F 73% 29.91 in 10.0 mi Calm Calm - N/A   Scattered Clouds
10:21 PM 64.4 °F - 57.2 °F 77% 29.93 in 10.0 mi Calm Calm - N/A   Clear
10:25 PM 64.4 °F - 57.2 °F 77% 29.93 in 10.0 mi Calm Calm - N/A   Clear
10:42 PM 64.4 °F - 57.2 °F 77% 29.93 in 10.0 mi Calm Calm - N/A   Clear
11:01 PM 62.6 °F - 59.0 °F 88% 29.93 in 10.0 mi North 1.2 mph - N/A   Clear
11:28 PM 62.6 °F - 57.2 °F 82% 29.93 in 10.0 mi Calm Calm - N/A   Mostly Cloudy
11:41 PM 62.6 °F - 57.2 °F 82% 29.93 in 10.0 mi Calm Calm - N/A   Overcast